GW0933 Weather Reports


time (UTC)temp
C
wind
direction
speed
KPH
gust
KPH
rain 1hr
cm
rain 24hr
cm
rain mn
cm
humidity
%
barometer
mb
20260504035305 17 0 0.0 4.8 0.00 0.00 0.00 72 1018.6
20260504034804 17 0 0.0 4.8 0.00 0.00 0.00 72 1018.6
20260504034614 17 0 0.0 6.4 0.00 0.00 0.00 72 1018.7
20260504034304 17 0 0.0 4.8 0.00 0.00 0.00 70 1018.6
20260504033805 17 0 0.0 8.0 0.00 0.00 0.00 70 1018.6
20260504033303 17 257 1.6 8.0 0.00 0.00 0.00 70 1018.6
20260504033055 17 0 0.0 6.4 0.00 0.00 0.00 70 1018.6
20260504032804 17 257 1.6 8.0 0.00 0.00 0.00 70 1018.6
20260504032304 17 257 1.6 8.0 0.00 0.00 0.00 70 1018.6
20260504031804 17 0 0.0 4.8 0.00 0.00 0.00 73 1018.6
20260504031557 17 257 0.0 8.0 0.00 0.00 0.00 70 1018.6
20260504031304 17 0 0.0 4.8 0.00 0.00 0.00 73 1018.6
20260504030304 18 0 0.0 0.0 0.00 0.00 0.00 76 1018.6
20260504030058 17 0 0.0 4.8 0.00 0.00 0.00 73 1018.6
20260504025804 18 0 0.0 0.0 0.00 0.00 0.00 76 1018.6
20260504024803 18 0 0.0 0.0 0.00 0.00 0.00 75 1018.6
20260504024559 18 0 0.0 0.0 0.00 0.00 0.00 76 1018.6
20260504023804 18 0 0.0 1.6 0.00 0.00 0.00 75 1018.6
20260504023304 19 0 0.0 1.6 0.00 0.00 0.00 74 1018.6
20260504023058 18 0 0.0 0.0 0.00 0.00 0.00 75 1018.4
20260504022804 19 0 0.0 1.6 0.00 0.00 0.00 74 1018.6
20260504022304 19 0 0.0 1.6 0.00 0.00 0.00 74 1018.6
20260504021804 19 0 0.0 0.0 0.00 0.00 0.00 72 1018.3
20260504021559 18 0 0.0 1.6 0.00 0.00 0.00 74 1018.4
20260504021304 19 0 0.0 0.0 0.00 0.00 0.00 72 1018.3
20260504020803 19 0 0.0 4.8 0.00 0.00 0.00 72 1018.3
20260504020304 20 0 0.0 4.8 0.00 0.00 0.00 70 1017.9
20260504020059 19 0 0.0 0.0 0.00 0.00 0.00 72 1018.2
20260504015804 20 0 0.0 4.8 0.00 0.00 0.00 70 1017.9
20260504014804 20 0 0.0 4.8 0.00 0.00 0.00 69 1017.9
20260504014608 20 0 1.6 4.8 0.00 0.00 0.00 70 1017.9
20260504014304 20 0 0.0 4.8 0.00 0.00 0.00 67 1017.9
20260504013804 20 0 0.0 4.8 0.00 0.00 0.00 67 1017.9
20260504013304 20 0 1.6 11.3 0.00 0.00 0.00 67 1017.9
20260504013101 20 0 0.0 4.8 0.00 0.00 0.00 67 1017.8
20260504012304 20 207 3.2 11.3 0.00 0.00 0.00 67 1017.6
20260504011804 20 222 4.8 9.7 0.00 0.00 0.00 67 1017.6
20260504011605 20 207 4.8 11.3 0.00 0.00 0.00 67 1017.6
20260504011304 20 222 4.8 9.7 0.00 0.00 0.00 67 1017.6
20260504010803 20 222 4.8 12.9 0.00 0.00 0.00 67 1017.6
20260504010304 21 245 8.0 12.9 0.00 0.00 0.00 64 1017.6
20260504010100 20 222 6.4 9.7 0.00 0.00 0.00 67 1017.6
20260504005804 21 245 8.0 12.9 0.00 0.00 0.00 64 1017.6
20260504004804 21 226 8.0 16.1 0.00 0.00 0.00 63 1017.6
20260504004554 20 245 6.4 12.9 0.00 0.00 0.00 64 1017.5
20260504004304 21 226 8.0 16.1 0.00 0.00 0.00 63 1017.6
20260504003803 21 226 8.0 16.1 0.00 0.00 0.00 63 1017.6
20260504003304 21 224 9.7 14.5 0.00 0.00 0.00 63 1017.6
20260504003059 20 226 8.0 16.1 0.00 0.00 0.00 63 1017.4
20260504002804 21 224 9.7 14.5 0.00 0.00 0.00 63 1017.6
20260504002304 21 224 9.7 19.3 0.00 0.00 0.00 63 1017.6
20260504001803 21 220 9.7 19.3 0.00 0.00 0.00 60 1017.6
20260504001604 21 224 8.0 14.5 0.00 0.00 0.00 63 1017.6
20260504001303 21 220 9.7 19.3 0.00 0.00 0.00 60 1017.6
20260504000804 21 220 9.7 19.3 0.00 0.00 0.00 60 1017.6
20260504000304 21 214 11.3 19.3 0.00 0.00 0.00 59 1017.6
20260504000056 21 220 11.3 19.3 0.00 0.00 0.00 60 1017.5
20260503235304 21 207 11.3 19.3 0.00 0.00 0.00 58 1017.6
20260503234804 21 207 11.3 20.9 0.00 0.00 0.00 58 1017.6
20260503234556 21 207 12.9 19.3 0.00 0.00 0.00 58 1017.4
20260503233804 22 200 12.9 20.9 0.00 0.00 0.00 55 1017.6
20260503233304 22 200 12.9 20.9 0.00 0.00 0.00 55 1017.6
20260503233058 21 200 16.1 20.9 0.00 0.00 0.00 55 1017.4
20260503232305 22 219 11.3 20.9 0.00 0.00 0.00 52 1017.6
20260503231804 22 222 12.9 19.3 0.00 0.00 0.00 48 1017.3
20260503231558 22 219 14.5 20.9 0.00 0.00 0.00 52 1017.4
20260503231304 22 222 12.9 19.3 0.00 0.00 0.00 48 1017.3
20260503230805 22 222 12.9 20.9 0.00 0.00 0.00 48 1017.3
20260503230304 22 219 12.9 20.9 0.00 0.00 0.00 45 1017.6
20260503230059 22 222 11.3 17.7 0.00 0.00 0.00 48 1017.3
20260503225804 22 219 12.9 20.9 0.00 0.00 0.00 45 1017.6
20260503225305 22 219 12.9 24.1 0.00 0.00 0.00 45 1017.6
20260503224804 22 243 14.5 24.1 0.00 0.00 0.00 46 1017.3
20260503224557 22 219 14.5 20.9 0.00 0.00 0.00 45 1017.5
20260503224304 22 243 14.5 24.1 0.00 0.00 0.00 46 1017.3
20260503223803 22 243 14.5 24.1 0.00 0.00 0.00 46 1017.3
20260503223304 22 233 14.5 22.5 0.00 0.00 0.00 47 1017.3
20260503223059 22 243 19.3 24.1 0.00 0.00 0.00 46 1017.3
20260503222804 22 233 14.5 22.5 0.00 0.00 0.00 47 1017.3
20260503222304 22 233 14.5 22.5 0.00 0.00 0.00 47 1017.3
20260503221557 22 233 14.5 22.5 0.00 0.00 0.00 47 1017.3
20260503221304 22 252 12.9 24.1 0.00 0.00 0.00 49 1017.6
20260503220804 22 252 12.9 24.1 0.00 0.00 0.00 49 1017.6
20260503220304 22 243 19.3 27.4 0.00 0.00 0.00 48 1017.6
20260503220056 21 252 16.1 24.1 0.00 0.00 0.00 49 1017.5
20260503215804 22 220 24.1 27.4 0.00 0.00 0.00 43 1017.6
20260503215304 22 220 24.1 27.4 0.00 0.00 0.00 43 1017.6
20260503214804 22 220 22.5 27.4 0.00 0.00 0.00 43 1017.6
20260503214556 21 220 19.3 27.4 0.00 0.00 0.00 43 1017.6
20260503214304 22 214 19.3 24.1 0.00 0.00 0.00 46 1017.9
20260503213804 22 214 19.3 24.1 0.00 0.00 0.00 46 1017.9
20260503213110 21 214 17.7 24.1 0.00 0.00 0.00 46 1017.8
20260503212803 22 221 22.5 19.3 0.00 0.00 0.00 45 1018.3
20260503212305 22 221 22.5 19.3 0.00 0.00 0.00 45 1018.3
20260503211804 24 82 3.2 19.3 0.00 0.00 0.00 36 1017.9
20260503211554 22 221 12.9 19.3 0.00 0.00 0.00 45 1018.1
20260503211304 24 82 3.2 19.3 0.00 0.00 0.00 36 1017.9
20260503210304 24 307 1.6 11.3 0.00 0.00 0.00 31 1018.3
20260503210105 23 82 8.0 19.3 0.00 0.00 0.00 36 1018.0
20260503205803 24 307 1.6 11.3 0.00 0.00 0.00 31 1018.3
20260503205304 24 307 1.6 14.5 0.00 0.00 0.00 31 1018.3
20260503204804 24 309 3.2 14.5 0.00 0.00 0.00 32 1018.3
20260503204600 24 307 1.6 11.3 0.00 0.00 0.00 31 1018.3
20260503204303 24 309 3.2 14.5 0.00 0.00 0.00 32 1018.3
20260503203805 24 309 3.2 20.9 0.00 0.00 0.00 32 1018.3
20260503203303 24 28 12.9 20.9 0.00 0.00 0.00 33 1018.6
20260503203103 24 309 3.2 14.5 0.00 0.00 0.00 32 1018.3
20260503202304 24 28 12.9 20.9 0.00 0.00 0.00 33 1018.6
20260503201804 23 35 3.2 20.9 0.00 0.00 0.00 32 1018.6
20260503201610 23 28 11.3 20.9 0.00 0.00 0.00 33 1018.4
20260503201303 23 92 0.0 14.5 0.00 0.00 0.00 31 1018.6
20260503200804 23 92 0.0 14.5 0.00 0.00 0.00 31 1018.6
20260503200304 23 92 3.2 14.5 0.00 0.00 0.00 31 1018.6
20260503200105 23 92 4.8 14.5 0.00 0.00 0.00 31 1018.6
20260503195804 23 311 4.8 8.0 0.00 0.00 0.00 33 1019.3
20260503195304 23 311 4.8 22.5 0.00 0.00 0.00 33 1019.3
20260503194607 23 311 3.2 8.0 0.00 0.00 0.00 33 1019.1
20260503194304 23 24 4.8 22.5 0.00 0.00 0.00 37 1019.6
20260503193804 23 24 4.8 22.5 0.00 0.00 0.00 37 1019.6
20260503193304 23 61 4.8 19.3 0.00 0.00 0.00 37 1019.6
20260503193110 23 24 4.8 22.5 0.00 0.00 0.00 37 1019.6
20260503192805 23 61 4.8 19.3 0.00 0.00 0.00 37 1019.6
20260503192305 23 61 4.8 19.3 0.00 0.00 0.00 37 1019.6
20260503191804 23 325 8.0 16.1 0.00 0.00 0.00 38 1020.0
20260503191608 23 61 3.2 19.3 0.00 0.00 0.00 37 1019.5
20260503191304 23 325 8.0 16.1 0.00 0.00 0.00 38 1020.0
20260503190804 23 325 8.0 16.1 0.00 0.00 0.00 38 1020.0
20260503190303 23 43 11.3 16.1 0.00 0.00 0.00 36 1020.0
20260503190059 22 325 6.4 16.1 0.00 0.00 0.00 38 1019.9
20260503185804 23 43 11.3 16.1 0.00 0.00 0.00 36 1020.0
20260503185305 23 43 11.3 16.1 0.00 0.00 0.00 36 1020.0
20260503184804 23 9 3.2 16.1 0.00 0.00 0.00 35 1020.3
20260503184608 22 43 11.3 16.1 0.00 0.00 0.00 36 1020.1
20260503183803 23 309 1.6 16.1 0.00 0.00 0.00 35 1020.3
20260503183304 22 351 6.4 32.2 0.00 0.00 0.00 34 1020.4
20260503183108 22 309 1.6 16.1 0.00 0.00 0.00 35 1020.4
20260503182804 22 25 9.7 32.2 0.00 0.00 0.00 32 1020.7
20260503181804 22 25 9.7 32.2 0.00 0.00 0.00 32 1020.7
20260503181608 22 25 6.4 30.6 0.00 0.00 0.00 32 1020.5
20260503181303 22 61 11.3 27.4 0.00 0.00 0.00 35 1020.7
20260503180803 22 61 11.3 27.4 0.00 0.00 0.00 35 1020.7
20260503180056 21 61 9.7 27.4 0.00 0.00 0.00 35 1020.5
20260503175804 22 15 3.2 22.5 0.00 0.00 0.00 37 1020.7
20260503175304 22 15 3.2 27.4 0.00 0.00 0.00 37 1020.7
20260503174804 22 71 12.9 27.4 0.00 0.00 0.00 31 1020.7
20260503174553 22 15 9.7 22.5 0.00 0.00 0.00 37 1020.6
20260503173101 21 71 16.1 27.4 0.00 0.00 0.00 31 1020.6
20260503172804 22 40 19.3 24.1 0.00 0.00 0.00 38 1021.0
20260503171804 22 27 11.3 19.3 0.00 0.00 0.00 36 1021.0
20260503171558 22 40 8.0 24.1 0.00 0.00 0.00 38 1020.8
20260503171304 22 27 11.3 19.3 0.00 0.00 0.00 36 1021.0
20260503170304 21 38 9.7 20.9 0.00 0.00 0.00 40 1021.0
20260503150303 20 51 6.4 19.3 0.00 0.00 0.00 46 1021.7
20260503140304 18 33 4.8 14.5 0.00 0.00 0.00 52 1021.0
20260503131303 16 25 9.7 12.9 0.00 0.00 0.00 61 1020.7
20260503130804 16 25 9.7 12.9 0.00 0.00 0.00 61 1020.7
20260503130304 16 49 3.2 4.8 0.00 0.00 0.00 67 1020.7
20260503120106 13 0 0.0 3.2 0.00 0.03 0.00 74 1020.2
20260503110304 11 0 0.0 1.6 0.00 0.30 0.00 80 1019.6
20260503090303 12 0 0.0 1.6 0.00 1.27 0.00 73 1019.0
20260503090105 12 0 0.0 3.2 0.00 1.24 0.00 72 1019.2
20260503081628 12 0 0.0 3.2 0.00 2.13 0.00 73 1019.0
20260503081304 13 356 1.6 4.8 0.00 2.11 0.00 72 1019.0
20260503080804 13 356 1.6 4.8 0.00 2.11 0.00 72 1019.0
20260503080304 13 0 0.0 4.8 0.00 2.26 0.00 72 1018.6
20260503080112 13 356 0.0 4.8 0.00 2.13 0.00 72 1018.8
20260503072804 13 0 0.0 3.2 0.00 2.51 0.00 72 1019.0
20260503072305 13 0 0.0 4.8 0.00 2.51 0.00 72 1019.0
20260503071804 13 0 0.0 4.8 0.00 2.51 0.00 72 1018.6
20260503071557 13 0 0.0 3.2 0.00 2.57 0.00 72 1018.8
20260503071304 13 0 0.0 4.8 0.00 2.57 0.00 72 1018.6
20260503070804 13 0 0.0 4.8 0.00 2.57 0.00 72 1018.6
20260503060304 13 0 0.0 0.0 0.00 3.15 0.00 70 1018.6
20260503054803 13 0 0.0 3.2 0.00 3.15 0.00 70 1018.6
20260503054558 13 0 0.0 0.0 0.00 3.15 0.00 70 1018.4
20260503054304 13 0 0.0 3.2 0.00 3.15 0.00 70 1018.6
20260503053804 13 0 0.0 3.2 0.00 3.15 0.00 70 1018.6
20260503053303 13 0 0.0 3.2 0.00 3.15 0.00 69 1018.6
20260503053053 13 0 0.0 3.2 0.00 3.15 0.00 70 1018.4
20260503052305 13 0 0.0 0.0 0.00 3.15 0.00 69 1018.6
20260503051804 13 0 0.0 1.6 0.00 3.15 0.00 69 1018.6
20260503051558 13 0 0.0 0.0 0.00 3.15 0.00 69 1018.4
20260503051304 14 0 0.0 1.6 0.00 3.15 0.00 68 1018.3
20260503050804 14 0 0.0 1.6 0.00 3.15 0.00 68 1018.3
20260503050304 14 0 0.0 1.6 0.00 3.15 0.00 67 1018.3
20260503050054 13 0 0.0 1.6 0.00 3.15 0.00 68 1018.4
20260503045803 14 0 0.0 1.6 0.00 3.15 3.15 67 1018.3
20260503045305 14 0 0.0 1.6 0.00 3.15 3.15 67 1018.3
20260503044804 14 0 0.0 1.6 0.00 3.15 3.15 66 1018.3
20260503044602 14 0 0.0 1.6 0.00 3.25 3.15 67 1018.2
20260503043304 15 0 0.0 0.0 0.00 3.15 3.15 64 1017.9
20260503043059 14 0 0.0 1.6 0.00 3.25 3.15 66 1018.1
20260503042804 15 0 0.0 0.0 0.00 3.15 3.15 64 1017.9
20260503042305 15 0 0.0 4.8 0.00 3.15 3.15 64 1017.9
20260503041803 15 0 0.0 4.8 0.00 3.23 3.15 61 1017.6
20260503041554 15 0 0.0 0.0 0.00 3.25 3.15 64 1017.9
20260503040804 15 0 0.0 4.8 0.00 3.23 3.15 61 1017.6
20260503040304 15 0 0.0 4.8 0.00 3.30 3.15 61 1017.6
20260503040059 15 0 0.0 4.8 0.00 3.25 3.15 61 1017.7
20260503035804 15 0 0.0 1.6 0.00 3.30 3.15 62 1017.6